Hourly Weather Staryy Kiner

Today, 8 July, Wednesday

Time Temperature Precipitation Wind Pressure Humidity
00:00 +22°C° 0.1 mm 3 mps 746 mmHg 93%
01:00 +21°C° 0 mm 3 mps 746 mmHg 94%
02:00 +21°C° 0 mm 3 mps 746 mmHg 94%
03:00 +21°C° 0 mm 3 mps 746 mmHg 95%
04:00 +22°C° 0 mm 3 mps 746 mmHg 92%
05:00 +23°C° 0 mm 4 mps 747 mmHg 90%
06:00 +23°C° 0 mm 4 mps 747 mmHg 87%
07:00 +26°C° 0 mm 4 mps 747 mmHg 83%
08:00 +27°C° 0 mm 4 mps 747 mmHg 79%
09:00 +29°C° 0 mm 5 mps 747 mmHg 75%
10:00 +29°C° 0 mm 5 mps 747 mmHg 72%
11:00 +30°C° 0 mm 5 mps 747 mmHg 69%
12:00 +32°C° 0 mm 5 mps 747 mmHg 66%
13:00 +32°C° 0 mm 5 mps 747 mmHg 66%
14:00 +32°C° 0 mm 5 mps 747 mmHg 66%
15:00 +33°C° 0 mm 5 mps 747 mmHg 66%
16:00 +32°C° 0 mm 4 mps 747 mmHg 71%
17:00 +30°C° 0 mm 4 mps 746 mmHg 75%
18:00 +30°C° 0 mm 4 mps 746 mmHg 79%
19:00 +28°C° 0 mm 4 mps 746 mmHg 83%
20:00 +26°C° 0 mm 3 mps 746 mmHg 88%
21:00 +25°C° 0 mm 3 mps 747 mmHg 93%
22:00 +24°C° 0 mm 3 mps 747 mmHg 93%
23:00 +24°C° 0 mm 3 mps 747 mmHg 94%

Tomorrow, 9 July, Thursday

Time Temperature Precipitation Wind Pressure Humidity
00:00 +22°C° 0 mm 3 mps 746 mmHg 95%
01:00 +22°C° 0 mm 3 mps 747 mmHg 95%
02:00 +22°C° 0 mm 3 mps 747 mmHg 95%
03:00 +21°C° 0 mm 3 mps 747 mmHg 95%
04:00 +22°C° 0 mm 3 mps 746 mmHg 92%
05:00 +23°C° 0 mm 4 mps 746 mmHg 89%
06:00 +25°C° 0 mm 4 mps 746 mmHg 86%
07:00 +26°C° 0 mm 4 mps 746 mmHg 81%
08:00 +27°C° 0 mm 5 mps 746 mmHg 77%
09:00 +29°C° 0 mm 5 mps 746 mmHg 72%
10:00 +29°C° 0 mm 5 mps 746 mmHg 68%
11:00 +30°C° 0 mm 5 mps 746 mmHg 65%
12:00 +32°C° 0 mm 6 mps 746 mmHg 62%
13:00 +32°C° 0 mm 6 mps 746 mmHg 62%
14:00 +32°C° 0 mm 6 mps 746 mmHg 63%
15:00 +32°C° 0 mm 6 mps 746 mmHg 64%
16:00 +30°C° 0 mm 5 mps 745 mmHg 68%
17:00 +30°C° 0 mm 5 mps 745 mmHg 72%
18:00 +29°C° 0 mm 4 mps 745 mmHg 76%
19:00 +27°C° 0.1 mm 4 mps 745 mmHg 79%
20:00 +26°C° 0.1 mm 4 mps 745 mmHg 83%
21:00 +25°C° 0.1 mm 4 mps 745 mmHg 86%
22:00 +23°C° 0 mm 4 mps 745 mmHg 86%
23:00 +23°C° 0 mm 4 mps 745 mmHg 86%

Day after tomorrow, 10 July, Friday

Time Temperature Precipitation Wind Pressure Humidity
00:00 +22°C° 0 mm 4 mps 745 mmHg 86%
01:00 +22°C° 0 mm 4 mps 745 mmHg 87%
02:00 +21°C° 0 mm 3 mps 745 mmHg 88%
03:00 +21°C° 0 mm 3 mps 745 mmHg 88%
04:00 +21°C° 0 mm 3 mps 745 mmHg 86%
05:00 +22°C° 0 mm 3 mps 745 mmHg 84%
06:00 +22°C° 0 mm 3 mps 745 mmHg 82%
07:00 +23°C° 0 mm 4 mps 745 mmHg 81%
08:00 +23°C° 0 mm 4 mps 745 mmHg 79%
09:00 +25°C° 0 mm 4 mps 745 mmHg 78%
10:00 +25°C° 0 mm 4 mps 745 mmHg 78%
11:00 +25°C° 0 mm 4 mps 745 mmHg 77%
12:00 +25°C° 0 mm 3 mps 745 mmHg 77%
13:00 +25°C° 0.2 mm 3 mps 745 mmHg 78%
14:00 +24°C° 0.2 mm 3 mps 745 mmHg 80%
15:00 +24°C° 0.2 mm 3 mps 746 mmHg 81%
16:00 +24°C° 0.1 mm 3 mps 746 mmHg 83%
17:00 +24°C° 0.1 mm 3 mps 746 mmHg 85%
18:00 +24°C° 0.1 mm 3 mps 746 mmHg 87%
19:00 +21°C° 0 mm 3 mps 746 mmHg 90%
20:00 +20°C° 0 mm 3 mps 747 mmHg 93%
21:00 +19°C° 0 mm 3 mps 747 mmHg 96%
22:00 +19°C° 0 mm 3 mps 747 mmHg 96%
23:00 +18°C° 0 mm 3 mps 747 mmHg 96%

11 July, Saturday

Time Temperature Precipitation Wind Pressure Humidity
00:00 +17°C° 0 mm 3 mps 748 mmHg 96%
01:00 +17°C° 0 mm 3 mps 748 mmHg 95%
02:00 +16°C° 0 mm 3 mps 748 mmHg 95%
03:00 +14°C° 0 mm 3 mps 749 mmHg 95%
04:00 +16°C° 0 mm 3 mps 749 mmHg 92%
05:00 +17°C° 0 mm 3 mps 749 mmHg 88%
06:00 +18°C° 0 mm 3 mps 750 mmHg 85%
07:00 +19°C° 0 mm 3 mps 750 mmHg 80%
08:00 +21°C° 0 mm 3 mps 750 mmHg 74%
09:00 +22°C° 0 mm 3 mps 750 mmHg 69%
10:00 +24°C° 0 mm 3 mps 750 mmHg 65%
11:00 +23°C° 0 mm 4 mps 751 mmHg 62%
12:00 +25°C° 0 mm 4 mps 751 mmHg 58%
13:00 +25°C° 0 mm 4 mps 751 mmHg 57%
14:00 +25°C° 0 mm 4 mps 751 mmHg 57%
15:00 +26°C° 0 mm 4 mps 751 mmHg 56%
16:00 +25°C° 0 mm 3 mps 751 mmHg 60%
17:00 +24°C° 0 mm 3 mps 751 mmHg 64%
18:00 +24°C° 0 mm 3 mps 751 mmHg 68%
19:00 +21°C° 0 mm 2 mps 751 mmHg 71%
20:00 +19°C° 0 mm 2 mps 751 mmHg 75%
21:00 +17°C° 0 mm 2 mps 751 mmHg 79%
22:00 +17°C° 0 mm 2 mps 752 mmHg 80%
23:00 +16°C° 0 mm 2 mps 752 mmHg 82%

12 July, Sunday

Time Temperature Precipitation Wind Pressure Humidity
00:00 +16°C° 0 mm 1 mps 752 mmHg 84%
01:00 +15°C° 0 mm 1 mps 752 mmHg 83%
02:00 +15°C° 0 mm 1 mps 752 mmHg 83%
03:00 +15°C° 0 mm 1 mps 752 mmHg 83%
04:00 +16°C° 0 mm 1 mps 752 mmHg 80%
05:00 +18°C° 0 mm 1 mps 752 mmHg 77%
06:00 +20°C° 0 mm 1 mps 752 mmHg 73%
07:00 +19°C° 0 mm 0 mps 752 mmHg 68%
08:00 +21°C° 0 mm 0 mps 752 mmHg 63%
09:00 +23°C° 0 mm 0 mps 752 mmHg 57%
10:00 +23°C° 0 mm 0 mps 752 mmHg 53%
11:00 +24°C° 0 mm 0 mps 752 mmHg 50%
12:00 +27°C° 0 mm 1 mps 752 mmHg 46%
13:00 +27°C° 0 mm 1 mps 751 mmHg 46%
14:00 +27°C° 0 mm 1 mps 751 mmHg 45%
15:00 +27°C° 0 mm 1 mps 751 mmHg 45%
16:00 +27°C° 0 mm 1 mps 751 mmHg 50%
17:00 +27°C° 0 mm 1 mps 750 mmHg 55%
18:00 +24°C° 0 mm 0 mps 750 mmHg 60%
19:00 +22°C° 0 mm 0 mps 750 mmHg 62%
20:00 +20°C° 0 mm 0 mps 750 mmHg 63%
21:00 +18°C° 0 mm 0 mps 750 mmHg 65%
22:00 +19°C° 0 mm 1 mps 750 mmHg 67%
23:00 +19°C° 0 mm 1 mps 750 mmHg 69%

13 July, Monday

Time Temperature Precipitation Wind Pressure Humidity
00:00 +18°C° 0 mm 1 mps 750 mmHg 71%
01:00 +16°C° 0 mm 0 mps 750 mmHg 73%
02:00 +16°C° 0 mm 0 mps 749 mmHg 76%
03:00 +15°C° 0 mm 0 mps 749 mmHg 78%
04:00 +16°C° 0 mm 0 mps 749 mmHg 77%
05:00 +20°C° 0 mm 1 mps 749 mmHg 75%
06:00 +21°C° 0 mm 1 mps 749 mmHg 74%
07:00 +21°C° 0 mm 2 mps 749 mmHg 70%
08:00 +24°C° 0 mm 2 mps 749 mmHg 66%
09:00 +25°C° 0 mm 3 mps 748 mmHg 62%
10:00 +26°C° 0 mm 3 mps 748 mmHg 60%
11:00 +27°C° 0 mm 3 mps 748 mmHg 58%
12:00 +27°C° 0 mm 3 mps 748 mmHg 56%
13:00 +27°C° 0 mm 3 mps 747 mmHg 56%
14:00 +27°C° 0 mm 3 mps 747 mmHg 56%
15:00 +28°C° 0 mm 3 mps 747 mmHg 56%
16:00 +27°C° 0 mm 3 mps 746 mmHg 61%
17:00 +26°C° 0 mm 3 mps 746 mmHg 66%
18:00 +26°C° 0 mm 2 mps 745 mmHg 71%
19:00 +24°C° 0 mm 2 mps 745 mmHg 77%
20:00 +23°C° 0 mm 2 mps 745 mmHg 83%
21:00 +21°C° 0 mm 2 mps 745 mmHg 90%
22:00 +20°C° 0.2 mm 3 mps 745 mmHg 91%
23:00 +20°C° 0.2 mm 3 mps 745 mmHg 92%
Show more